Погода в Нутэпэльмене

Россия / Чукотский автономный округ     67°25′31″N   174°55′29″W
темп.,
°C
ветер,
м/с
пор.,
м/с
влажн.,
%
обл.,
%
осадки,
мм/ч
давл.,
гПа
погр.,
м
11 апреля, вс
вс1100:00−20св3496100 0.0 102651
03:00−21св3596100 0.0 102588
06:00−20св4793100 0.0 1026305
09:00−19св5683100 0.0 1026377
12:00−18св5678100 0.0 1026451
15:00−18ссв7881100 0.0 1026546
18:00−19ссв61091100 0.0 1025388
21:00−20с61195100 0.0 1025283
12 апреля, пн
пн1200:00−23с71297100 0.0 1024215
03:00−24ссз71398100 0.0 1024223
06:00−25ссз81496100 0.0 1023263
09:00−23ссз9159398 0.0 1022429
12:00−20ссз101590100 0.0 1019467
15:00−19ссз101789100 0.0 1017519
18:00−18ссз101787100 0.0 1016409
21:00−20ссз101688100 0.0 1015353
13 апреля, вт
вт1300:00−21ссз91691100 0.0 1014311
03:00−20ссз91693100 0.0 1013333
06:00−19ссз91592100 0.0 1012397
09:00−17ссз101492100 0.0 1012422
12:00−14с101387100 0.0 1011507
15:00−12с91388100 0.0 1011643
18:00−12с81290100 0.1 1011628
21:00−13с71195100 0.6 1012578
14 апреля, ср
ср1400:00−13ссз71194100 1.4 1012505
03:00−14ссз71094100 0.6 1012451
06:00−14ссз71095100 1.1 1012448
09:00−13ссз81093100 0.9 1012462
12:00−11ссз7992100 1.8 1013494
15:00−9сз7994100 1.0 1013462
18:00−10сз61094100 2.4 1013419
21:00−10зсз61093100 0.8 1014355
15 апреля, чт
чт1500:00−12з5892100 0.9 1015250
03:00−13зюз359587 0.1 101774
06:00−15зюз339695 0.1 101847
09:00−11зюз2487100 0.0 1019271
12:00−10ю238195 0.0 1020358
15:00−9ю33845 0.0 1020252
18:00−14ю33955 0.0 102010
21:00−19ю3310043 0.0 102010